Simultaneous Nadir Overpasses (SNOs) Predictions

Prediction of SNOs between NOAA-19 and TERRA Satellite Orbit:

Table of predicted SNOs for the next 14.0 days since TLE Epoch: 2/9/2019
Index Date (NOAA-19) Time (NOAA-19) Lat,Lon (NOAA-19) SZA (NOAA-19 ) Date (TERRA) Time (TERRA) Lat,Lon (TERRA) SZA (TERRA ) Distance(km) Time Diff (sec)
1 02/10/2019 16:35:41 78.02, -48.81 92.73 02/10/2019 16:35:46 78.00, -48.86 92.70 2.51 5
2 02/12/2019 22:09:14 -78.02, 47.93 88.02 02/12/2019 22:09:31 -78.02, 47.75 88.02 4.23 17
3 02/12/2019 23:00:09 77.98,-144.61 91.96 02/12/2019 22:58:57 78.01,-144.63 91.96 2.86 72
4 02/15/2019 03:42:39 78.06, 144.43 91.27 02/15/2019 03:43:14 78.06, 144.52 91.28 2.08 35
5 02/15/2019 04:33:43 -78.01, -48.05 88.78 02/15/2019 04:32:42 -78.03, -47.99 88.77 2.87 61
6 02/17/2019 09:16:13 -78.07,-118.98 89.49 02/17/2019 09:17:00 -78.04,-119.00 89.51 3.51 47
7 02/17/2019 10:07:07 78.02, 48.62 90.47 02/17/2019 10:06:26 78.03, 48.59 90.47 1.63 41
8 02/19/2019 14:49:36 78.09, -22.34 89.75 02/19/2019 14:50:42 78.09, -22.21 89.77 3.07 66
9 02/19/2019 15:40:40 -78.03, 145.22 90.31 02/19/2019 15:40:11 -78.02, 145.10 90.33 3.05 29
10 02/21/2019 20:23:16 -78.33, 72.90 90.90 02/21/2019 20:24:25 -78.22, 74.96 90.88 48.02 69




NCC Satellite Simultaneous Nadir Overpasses (SNOs) Prediction Service
